Total_Precipitation_Accumulation
2.13 2.34 2.36 2.39 2.47 2.52 2.33 2.06 1.96 1.98 2.05 2.12 2.30 2.36 2.31 2.35 2.47 2.55 2.51 2.82 2.96 2.99 2.96 2.95 2.92 3.06 3.04 2.92 3.02 3.20 3.48 3.57 3.20 2.63 2.50 2.45 2.44 2.34 2.35 2.22 2.10 2.05 1.86
2.08 2.29 2.36 2.34 2.37 2.38 2.22 2.02 1.98 2.03 2.09 2.09 2.20 2.24 2.14 2.16 2.37 2.41 2.45 2.73 2.89 2.78 2.78 2.78 2.57 2.64 2.72 2.59 2.73 2.81 2.95 3.21 3.14 2.80 2.71 2.67 2.61 2.49 2.49 2.46 2.23 2.01 1.75
2.01 2.31 2.47 2.49 2.43 2.33 2.12 1.90 1.83 1.83 1.92 1.96 1.99 2.02 2.07 2.22 2.32 2.31 2.33 2.34 2.37 2.44 2.66 2.78 2.57 2.55 2.47 2.47 2.50 2.48 2.56 2.67 2.92 2.84 2.69 2.73 2.65 2.65 2.57 2.35 2.19 2.10 1.74
1.92 2.11 2.23 2.10 2.04 2.02 1.91 1.76 1.70 1.71 1.75 1.82 1.90 2.00 2.07 2.14 2.19 2.26 2.33 2.26 2.22 2.27 2.42 2.49 2.46 2.43 2.36 2.46 2.38 2.37 2.45 2.61 2.75 2.79 2.69 2.79 2.77 2.72 2.74 2.52 2.51 2.37 2.14
1.54 1.64 1.77 1.75 1.73 1.72 1.78 1.82 1.82 1.86 1.82 1.89 1.97 1.97 1.97 1.96 1.89 1.95 2.04 2.06 2.18 2.13 2.04 2.05 2.07 2.12 2.11 2.15 2.00 2.18 2.43 2.58 2.63 2.65 2.64 2.82 2.96 2.97 2.80 2.73 2.77 2.73 2.50
1.30 1.40 1.63 1.75 1.76 1.75 1.82 1.95 1.96 1.92 1.92 1.95 1.90 1.95 1.95 1.68 1.86 1.91 1.92 2.01 2.08 2.09 2.00 1.89 1.79 1.79 1.73 1.73 1.69 1.77 2.07 2.31 2.45 2.59 2.57 2.69 2.91 3.09 3.21 3.17 3.02 2.90 2.81
1.39 1.54 1.71 1.82 1.90 1.91 1.88 2.00 1.96 1.97 2.04 2.00 1.92 1.92 1.95 2.01 2.07 1.91 1.78 1.75 1.84 1.90 1.87 1.84 1.61 1.53 1.71 1.68 1.73 1.70 1.72 1.88 2.04 2.27 2.37 2.33 2.52 2.83 3.10 3.01 3.16 3.21 3.11
1.67 1.85 1.94 2.06 2.01 1.98 1.98 2.02 2.10 2.20 2.24 2.21 2.15 2.06 2.04 2.03 2.04 1.84 1.85 1.76 1.77 1.76 1.78 1.81 1.80 1.72 1.79 1.91 1.88 1.80 1.68 1.64 1.73 1.81 1.93 2.06 2.30 2.64 2.92 2.88 2.96 3.06 3.07
1.81 1.91 2.05 2.15 2.19 2.20 2.21 2.18 2.27 2.40 2.36 2.29 2.23 2.24 2.18 2.20 2.28 2.08 2.11 1.95 1.93 1.93 1.96 1.96 1.94 1.84 1.99 1.95 1.84 1.81 1.76 1.75 1.81 1.89 1.84 1.94 2.18 2.33 2.53 2.65 2.62 2.68 2.61
1.78 1.89 2.07 2.30 2.35 2.37 2.52 2.61 2.57 2.52 2.38 2.40 2.39 2.36 2.36 2.40 2.65 2.46 2.30 2.12 2.11 2.10 2.20 2.18 2.22 2.07 2.07 2.00 1.83 1.84 1.86 1.88 1.99 1.94 1.89 1.84 1.86 2.09 2.35 2.38 2.56 2.75 2.62
1.82 1.96 2.14 2.32 2.41 2.49 2.66 2.74 2.72 2.66 2.63 2.59 2.53 2.57 2.55 2.54 2.71 2.49 2.28 2.14 2.19 2.33 2.32 2.23 2.29 2.33 2.12 2.12 2.07 1.97 1.95 1.96 1.94 1.96 1.96 1.93 1.93 2.03 2.14 2.26 2.52 2.72 2.71
1.77 1.91 2.04 2.19 2.21 2.31 2.59 2.68 2.78 2.80 2.75 2.66 2.61 2.47 2.49 2.47 2.40 2.27 2.18 2.15 2.24 2.36 2.42 2.35 2.31 2.32 2.09 2.02 1.89 1.85 1.89 1.78 1.69 1.80 1.81 1.84 1.86 1.86 1.95 2.16 2.37 2.45 2.48
1.86 1.99 2.13 2.21 2.26 2.36 2.48 2.53 2.63 2.70 2.64 2.52 2.54 2.49 2.43 2.42 2.40 2.17 1.96 1.93 1.99 2.02 2.16 2.32 2.24 2.14 1.93 1.73 1.69 1.66 1.58 1.46 1.46 1.51 1.50 1.50 1.59 1.69 1.79 1.93 2.15 2.27 2.25
1.96 2.02 2.11 2.22 2.22 2.30 2.43 2.53 2.64 2.74 2.81 2.69 2.55 2.44 2.43 2.39 2.26 2.08 1.89 1.81 1.92 2.04 2.13 2.20 2.08 1.97 1.78 1.62 1.53 1.43 1.38 1.45 1.49 1.46 1.48 1.55 1.62 1.68 1.71 1.75 1.89 2.02 2.04
1.90 1.97 2.00 2.04 2.14 2.26 2.32 2.43 2.41 2.49 2.52 2.50 2.42 2.38 2.37 2.29 2.14 2.06 1.87 1.75 1.88 2.06 2.12 2.12 1.98 1.92 1.81 1.71 1.63 1.57 1.56 1.57 1.54 1.52 1.57 1.56 1.57 1.64 1.62 1.62 1.74 1.75 1.70
1.95 1.98 1.93 1.88 1.96 2.04 2.13 2.15 2.17 2.06 2.05 1.99 1.99 1.97 1.90 1.81 1.70 1.58 1.56 1.58 1.67 1.85 1.86 1.91 2.00 1.96 1.89 1.81 1.71 1.63 1.59 1.57 1.53 1.55 1.61 1.61 1.58 1.57 1.62 1.58 1.63 1.67 1.60
1.86 1.91 1.91 1.89 1.93 1.95 2.03 2.00 2.02 1.94 1.84 1.74 1.69 1.70 1.73 1.69 1.63 1.61 1.64 1.69 1.67 1.73 1.65 1.75 1.87 1.84 1.83 1.77 1.65 1.52 1.49 1.52 1.61 1.61 1.62 1.63 1.67 1.67 1.70 1.67 1.64 1.68 1.64
1.60 1.70 1.84 1.93 1.97 1.98 2.04 2.10 2.17 2.19 2.07 1.84 1.70 1.64 1.58 1.55 1.50 1.54 1.63 1.60 1.52 1.52 1.56 1.69 1.74 1.71 1.68 1.64 1.59 1.53 1.53 1.58 1.67 1.64 1.63 1.66 1.69 1.69 1.70 1.70 1.66 1.63 1.64
1.52 1.55 1.57 1.66 1.77 1.85 1.86 1.91 1.99 2.08 2.08 1.96 1.81 1.72 1.65 1.58 1.49 1.45 1.42 1.28 1.31 1.44 1.58 1.62 1.67 1.67 1.57 1.50 1.48 1.43 1.45 1.51 1.60 1.66 1.64 1.70 1.74 1.78 1.76 1.72 1.74 1.77 1.68
1.56 1.59 1.55 1.51 1.51 1.56 1.63 1.71 1.80 1.92 1.99 1.95 1.86 1.75 1.66 1.56 1.33 1.24 1.17 1.14 1.22 1.29 1.37 1.41 1.45 1.43 1.35 1.36 1.41 1.39 1.37 1.45 1.57 1.63 1.62 1.68 1.76 1.76 1.69 1.66 1.66 1.68 1.59
1.55 1.54 1.54 1.53 1.53 1.56 1.61 1.68 1.72 1.77 1.82 1.75 1.64 1.55 1.48 1.31 1.18 1.09 1.08 1.12 1.20 1.27 1.33 1.38 1.38 1.32 1.31 1.36 1.44 1.46 1.43 1.48 1.57 1.60 1.63 1.67 1.75 1.77 1.68 1.64 1.63 1.66 1.68
1.56 1.48 1.43 1.43 1.50 1.56 1.63 1.71 1.74 1.74 1.67 1.59 1.52 1.41 1.37 1.20 1.12 1.10 1.11 1.15 1.22 1.32 1.35 1.37 1.39 1.36 1.32 1.35 1.43 1.51 1.55 1.56 1.60 1.62 1.59 1.61 1.70 1.74 1.77 1.74 1.75 1.77 1.80
1.67 1.55 1.48 1.47 1.50 1.52 1.54 1.60 1.64 1.61 1.55 1.46 1.36 1.30 1.23 1.19 1.12 1.14 1.19 1.26 1.33 1.34 1.31 1.29 1.31 1.31 1.30 1.33 1.34 1.41 1.52 1.58 1.58 1.58 1.63 1.67 1.66 1.66 1.69 1.66 1.67 1.70 1.72
1.71 1.61 1.50 1.42 1.43 1.46 1.49 1.57 1.56 1.51 1.42 1.37 1.33 1.31 1.27 1.28 1.24 1.23 1.29 1.36 1.29 1.20 1.18 1.18 1.20 1.20 1.21 1.28 1.28 1.28 1.34 1.46 1.47 1.44 1.47 1.53 1.54 1.55 1.62 1.62 1.62 1.64 1.71
1.68 1.63 1.52 1.41 1.39 1.40 1.43 1.51 1.53 1.51 1.44 1.35 1.31 1.33 1.39 1.44 1.39 1.33 1.31 1.30 1.22 1.12 1.05 1.13 1.17 1.15 1.16 1.18 1.22 1.24 1.32 1.35 1.34 1.33 1.35 1.41 1.47 1.54 1.60 1.62 1.63 1.64 1.69
1.49 1.41 1.34 1.28 1.26 1.30 1.37 1.45 1.49 1.53 1.53 1.47 1.46 1.47 1.43 1.41 1.37 1.30 1.26 1.25 1.24 1.16 1.10 1.12 1.17 1.16 1.19 1.18 1.12 1.14 1.15 1.07 1.10 1.20 1.17 1.21 1.37 1.49 1.57 1.65 1.66 1.70 1.70